This is the latest recevied weather packets stored in our database for station/object KD4IZ-13. If no packets are shown the sender has not sent any weather packets the latest 10 day(s).
| Time | Temp. | Humidity | Pressure | Rain* | Wind** | Luminosity | Snow |
|---|---|---|---|---|---|---|---|
| 1778109123 | 19.44° C | 91% | 1010 hPa | 0 mm | - | 19 W/m² | - |
| 1778108819 | 19.44° C | 91% | 1010 hPa | 0 mm | - | 46 W/m² | - |
| 1778108516 | 19.44° C | 92% | 1009.9 hPa | 0 mm | - | 49 W/m² | - |
| 1778108212 | 19.44° C | 91% | 1010 hPa | 0 mm | - | 60 W/m² | - |
| 1778107909 | 19.44° C | 91% | 1010.3 hPa | 0 mm | - | 47 W/m² | - |
| 1778107606 | 19.44° C | 91% | 1010.1 hPa | 0 mm | - | 50 W/m² | - |
| 1778107303 | 19.44° C | 91% | 1010.3 hPa | 0 mm | - | 75 W/m² | - |
| 1778106999 | 19.44° C | 91% | 1010.1 hPa | 0 mm | - | 88 W/m² | - |
| 1778106695 | 19.44° C | 90% | 1010.2 hPa | 0 mm | - | 95 W/m² | - |
| 1778106392 | 19.44° C | 90% | 1010.1 hPa | 0 mm | - | 84 W/m² | - |
| 1778106088 | 19.44° C | 90% | 1010 hPa | 0 mm | - | 107 W/m² | - |
| 1778105786 | 19.44° C | 90% | 1010.1 hPa | 0 mm | - | 98 W/m² | - |
| 1778105484 | 20° C | 90% | 1010.1 hPa | 0 mm | - | 201 W/m² | - |
| 1778105180 | 19.44° C | 91% | 1010.2 hPa | 0 mm | - | 285 W/m² | - |
| 1778104875 | 19.44° C | 92% | 1010.1 hPa | 0 mm | - | 75 W/m² | - |
| 1778104572 | 19.44° C | 92% | 1010.1 hPa | 0 mm | - | 58 W/m² | - |
| 1778104268 | 18.89° C | 91% | 1009.9 hPa | 0 mm | - | 52 W/m² | - |
| 1778103965 | 19.44° C | 91% | 1010.2 hPa | 0 mm | - | 36 W/m² | - |
| 1778103662 | 18.89° C | 91% | 1010 hPa | 0 mm | - | 42 W/m² | - |
| 1778103361 | 18.89° C | 91% | 1009.8 hPa | 0 mm | - | 41 W/m² | - |
| 1778103057 | 18.89° C | 91% | 1009.7 hPa | 0 mm | - | 26 W/m² | - |
| 1778102754 | 19.44° C | 91% | 1009.5 hPa | 0 mm | - | 39 W/m² | - |
| 1778102449 | 19.44° C | 91% | 1009.6 hPa | 0 mm | - | 35 W/m² | - |
| 1778102145 | 19.44° C | 90% | 1009.4 hPa | 0 mm | - | 84 W/m² | - |
| 1778101842 | 19.44° C | 91% | 1009.5 hPa | 0 mm | - | 154 W/m² | - |
* Rain latest hour (hover to see other rain measurements)
** Current wind speed in m/s (hover to see current wind gust speed)